Torna al catalogo

SL-8 R/B

AttivoLEO
NORAD 12644·ROCKET BODY·🇷🇺 Russia

Lanciato Aug 6, 1981 da Plesetsk Cosmodrome

Loading…

Prossimi Passaggi (prossime 24 ore)

TLE

AggiornatoSource: Space-Track

Epoca: Sep 14, 2026, 07:41 UTC

1 12644U 81074J   26257.32064039 -.00000085  00000-0 -60662-3 0  9994
2 12644  74.0293 101.5081 0130798 356.2115 176.2809 12.26027005 18648

Traccia SL-8 R/B in tempo reale con AllMySat

Download on the App Store